Terminal Aerodrome Forecast
Issued by NWS Bismarck, ND

Home | Current Version | Previous Version | Graphics & Text | Print | Product List | Glossary On
Versions: 1 2 3 4 5 6 7 8 9 10 11 12 13 14 15
653
FTUS43 KBIS 190831 AAA
TAFISN
TAF AMD
KISN 190831Z 1909/2006 23009KT P6SM SCT100 OVC140 WS020/29040KT
      TEMPO 1909/1911 -FZRAPL BKN070 OVC090
     FM191100 24006KT P6SM -FZRA BKN060 OVC090 WS020/29035KT
     FM191300 25006KT P6SM SCT120 BKN160
     FM191600 26007KT P6SM FEW180=

USA.gov is the U.S. government's official web portal to all federal, state and local government web resources and services.